Regional Weather Roundup
Issued by NWS

Home | Current Version | Previous Version | Graphics & Text | Print | Product List | Glossary On
Versions: 1 2 3 4 5 6 7 8 9 10 11 12 13 14 15 16 17 18 19 20 21 22 23 24 25 26 27 28 29 30 31 32 33 34 35 36 37 38 39 40 41 42 43 44 45 46 47 48 49 50
000
ASUS45 KPSR 300210
RWRAZ

ARIZONA HOURLY REGIONAL WEATHER ROUNDUP
NATIONAL WEATHER SERVICE PHOENIX AZ
700 PM MST SAT AUG 29 2015

NOTE: FAIR INDICATES FEW OR NO CLOUDS BELOW 12,000 FEET WITH NO
SIGNIFICANT WEATHER AND/OR OBSTRUCTIONS TO VISIBILITY.

AZZ001>003-036-300300-
NORTHWEST ARIZONA

CITY           SKY/WX    TMP DP  RH WIND       PRES   REMARKS
BULLHEAD CITY  CLEAR    108  46  12 S14       29.68S HX 103
KINGMAN        PTCLDY    88  52  29 SE16      29.94F
$$

AZZ004>008-015-016-018-300300-
NORTH CENTRAL ARIZONA

CITY           SKY/WX    TMP DP  RH WIND       PRES   REMARKS
GRAND CANYON   PTCLDY    73  48  41 CALM      30.26F
WILLIAMS       MOCLDY    73  48  40 SW3       30.32S
PRESCOTT       CLOUDY    76  58  53 E3        30.13S
FLAGSTAFF      PTCLDY    67  50  54 W3        30.30S
PAYSON         MOCLDY    79  55  44 CALM      30.16S
PAGE           PTCLDY    92  37  14 NE6       29.98S
$$

AZZ009>014-017-300300-
NORTHEAST ARIZONA

CITY           SKY/WX    TMP DP  RH WIND       PRES   REMARKS
WINSLOW        CLEAR     83  51  33 SW10      30.09S
SAINT JOHNS    MOCLDY    77  47  34 E9        30.18S
WINDOW ROCK    CLOUDY    76  43  30 N6        30.26S
SHOW LOW       PTCLDY    72  45  37 S7        30.26R
$$

AZZ023-300300-
GREATER PHOENIX AREA

CITY           SKY/WX    TMP DP  RH WIND       PRES   REMARKS
PHOENIX        MOCLDY   107  53  16 VRB6      29.74S THUNDER HX 105
BUCKEYE        MOCLDY   100  57  23 SW12      29.76R
GLENDALE       PTCLDY   108  54  16 S9          N/A  HX 106
LUKE AFB       PTCLDY   104  60  23 SW15      29.73S HX 105
DEER VALLEY    PTCLDY   104  52  17 SW7       29.77S HX 101
SCOTTSDALE     PTCLDY   105  51  16 SW5       29.79R HX 102
MESA-FALCON    PTCLDY   104  54  18 W6        29.78R HX 102
MESA-GATEWAY   MOCLDY    99  57  25 SE16      29.82R
CHANDLER       MOCLDY   102  57  22 W12G18    29.77R THUNDER HX 101
$$

AZZ027-028-300300-
SOUTHWEST MARICOPA COUNTY AND PINAL COUNTY

CITY           SKY/WX    TMP DP  RH WIND       PRES   REMARKS
CASA GRANDE    PTCLDY    99  57  25 SE5       29.82R
GILA BEND      FAIR     100  60  26 SW13      29.74S HX 101
$$

AZZ503-504-507>509-300300-
SOUTHEAST ARIZONA

CITY           SKY/WX    TMP DP  RH WIND       PRES   REMARKS
TUCSON         CLOUDY    86  62  44 W9        29.98S
DAVIS-MONTHAN  CLOUDY    84  64  52 S6        29.95F
RYAN FIELD     PTCLDY    82  66  57 N7        29.99R
NOGALES        MOCLDY    80  59  48 N9        30.04R
SIERRA VISTA   CLOUDY    77  57  50 W6        30.12R
DOUGLAS          N/A    N/A N/A N/A MISG      30.06S
SAFFORD        CLOUDY    80  61  52 S14G23    30.00R
$$

AZZ020-021-025-026-031-300300-
SOUTHWEST ARIZONA

CITY           SKY/WX    TMP DP  RH WIND       PRES   REMARKS
YUMA           PTCLDY   107  59  20 S9        29.68F HX 108
$$

CAZ031-033-041-043-047-048-061-300300-
SOUTHERN CALIFORNIA

CITY           SKY/WX    TMP DP  RH WIND       PRES   REMARKS
DOWNTOWN L.A.  CLEAR     81  63  54 VRB5      29.82S
L.A. AIRPORT   PTCLDY    78  65  63 W15       29.83S
SAN DIEGO      PTCLDY    80  65  59 NW8       29.85S
BURBANK        CLEAR     91  60  35 S3        29.83S
ONTARIO        PTCLDY    91  54  28 W14       29.85R
RIVERSIDE      CLEAR     90  58  33 W13       29.85R
PALM SPRINGS   CLEAR    106  48  14 NW16G23   29.71S HX 102
EL CENTRO NAS  CLEAR    109  56  17 SW10      29.66R HX 108
IMPERIAL       CLEAR    110  58  18 SE10      29.64S HX 110
BLYTHE         CLEAR    109  53  15 SW14      29.67F HX 107
NEEDLES        CLEAR    109  46  12 W9        29.70S HX 105
$$

NVZ020-UTZ003-300300-
SOUTHERN NEVADA-UTAH

CITY           SKY/WX    TMP DP  RH WIND       PRES   REMARKS
LAS VEGAS      PTCLDY   102  39  11 SW13G23   29.75F
SALT LAKE CITY MOCLDY    91  41  17 S9        29.87F
$$

NMZ009-TXZ055-300300-
NEW MEXICO-WEST TEXAS

CITY           SKY/WX    TMP DP  RH WIND       PRES   REMARKS
ALBUQUERQUE    PTCLDY    77  44  30 E13       30.18S
EL PASO        MOCLDY    87  54  32 SE14      30.06R
$$


........................KEY........................
SKY/WX - SKY CONDITION/WEATHER
TMP    - TEMPERATURE IN FAHRENHEIT
DP     - DEW POINT IN FAHRENHEIT
RH     - RELATIVE HUMIDITY IN PERCENT
WIND   - DIRECTION AND SPEED IN MILES PER HOUR (MPH)
VRB    - VARIABLE WIND DIRECTION
PRES   - MEAN SEA LEVEL PRESSURE IN INCHES OF MERCURY
         F - FALLING PRESSURE   R - RISING PRESSURE
         S - STEADY PRESSURE
VSB    - VISIBILITY IN MILES
HX     - HEAT INDEX IN FAHRENHEIT
WCI    - WIND CHILL INDEX IN FAHRENHEIT
TC     - TEMPERATURE IN CELSIUS WHICH IS ALSO KNOWN AS
         TEMPERATURE IN CENTIGRADE
AFB    - AIR FORCE BASE
         LUKE AFB IS LUKE AIR FORCE BASE
         DAVIS-MONTHAN IS DAVIS-MONTHAN AIR FORCE BASE
NAS    - NAVAL AIR STATION
         EL CENTRO NAS IS EL CENTRO NAVAL AIR STATION
N/A    - NOT AVAILABLE




USA.gov is the U.S. government's official web portal to all federal, state and local government web resources and services.